Location: Ciserano
(45.5833°N, 9.6000°E)
Time: 07:42:54
(UTC+00:00)

Cosmos 1295 Rocket - Pass Details

Date: 17 April 2021
Orbit: 944 x 993 km, 82.9° (Epoch: 13 May)

Event Time Altitude Azimuth Distance (km) Brightness Sun altitude
Rises 00:32:36 0° 349° (N) 3,668 8.3 -31.7°
Reaches altitude 10° 00:35:07 10° 348° (NNW) 2,724 7.5 -31.5°
Enters shadow 00:40:29 64° 315° (NW) 1,083 4.7 -31.2°
